Daleville, AL

12:10 AM CST on January 17, 2017 (GMT -0600)
Cairns Army Air Field

Weather History for KOZR - March, 2012

Change the Weather History Date:

Thursday, March 15, 2012

  Actual Average Record
Temperature  
Mean Temperature 70 °F -  
Max Temperature 85 °F 67 °F 85 °F (2012)
Min Temperature 57 °F 46 °F 34 °F (2013)
Cooling Degree Days 6    
Growing Degree Days 20 (Base 50)    
Moisture  
Dew Point 59 °F    
Average Humidity 70    
Maximum Humidity 98    
Minimum Humidity 36    
Precipitation  
Precipitation 0.00 in - - ()
Sea Level Pressure  
Sea Level Pressure 30.22 in    
Wind  
Wind Speed 2 mph (NW)    
Max Wind Speed 6 mph    
Max Gust Speed -    
Visibility 10 miles    
Events      
Averages and records for this station are not official NWS values.
T = Trace of Precipitation, MM = Missing Value Source: NWS Daily Summary

Daily Weather History Graph

Daily Weather History Graph

Search for Another Location

Airport or City:

Trip Planner

Search our weather history database for the weather conditions in past years. The results will help you decide how hot, cold, wet, or windy it might be!

Date:

Astronomy

Mar. 15, 2012 Rise Set
Actual Time 6:52 AM CDT 6:51 PM CDT
Civil Twilight 6:28 AM CDT 7:15 PM CDT
Nautical Twilight 5:59 AM CDT 7:43 PM CDT
Astronomical Twilight 5:31 AM CDT 8:12 PM CDT
Moon 1:57 AM CDT (3/15) 12:29 PM CDT (3/15)
Length of Visible Light 12h 47m
Length of Day
11h 59m
Last Quarter, 43% of the Moon is Illuminated
Mar 15
Last Quarter
Mar 22
New
Mar 30
First Quarter
Apr 6
Full
Apr 13
Last Quarter

Hourly Weather History & Observations

Time (CDT) Temp. Heat Index Dew Point Humidity Pressure Visibility Wind Dir Wind Speed Gust Speed Precip Events Conditions
12:55 AM 62.4 °F - 59.7 °F 91% 30.22 in 10.0 mi Calm Calm - N/A   Clear
1:55 AM 60.3 °F - 58.3 °F 93% 30.21 in 10.0 mi Calm Calm - N/A   Clear
2:55 AM 59.9 °F - 59.0 °F 97% 30.20 in 10.0 mi Calm Calm - N/A   Clear
3:55 AM 59.4 °F - 58.5 °F 97% 30.20 in 10.0 mi Calm Calm - N/A   Clear
4:55 AM 58.6 °F - 58.1 °F 98% 30.22 in 10.0 mi Calm Calm - N/A   Clear
5:55 AM 58.3 °F - 57.0 °F 96% 30.23 in 10.0 mi North 3.5 mph - N/A   Clear
6:55 AM 57.4 °F - 56.5 °F 97% 30.26 in 10.0 mi WNW 3.5 mph - N/A   Clear
7:55 AM 62.8 °F - 61.7 °F 96% 30.28 in 10.0 mi NNE 5.8 mph - N/A   Clear
8:55 AM 66.0 °F - 62.8 °F 89% 30.29 in 10.0 mi NE 5.8 mph - N/A   Clear
9:55 AM 72.0 °F - 63.7 °F 75% 30.30 in 10.0 mi Calm Calm - N/A   Clear
10:55 AM 76.6 °F - 64.0 °F 65% 30.29 in 10.0 mi Calm Calm - N/A   Clear
11:55 AM 80.4 °F 81.3 °F 60.8 °F 51% 30.27 in 10.0 mi Calm Calm - N/A   Clear
12:55 PM 82.6 °F 82.8 °F 59.7 °F 46% 30.25 in 10.0 mi Variable 3.5 mph - N/A   Clear
1:55 PM 81.5 °F 81.8 °F 59.4 °F 47% 30.21 in 10.0 mi WNW 4.6 mph - N/A   Mostly Cloudy
2:55 PM 84.9 °F 83.9 °F 57.0 °F 38% 30.19 in 10.0 mi Calm Calm - N/A   Partly Cloudy
3:55 PM 84.7 °F 83.4 °F 54.7 °F 36% 30.17 in 10.0 mi Calm Calm - N/A   Partly Cloudy
4:55 PM 84.9 °F 83.6 °F 54.9 °F 36% 30.15 in 10.0 mi North 4.6 mph - N/A   Partly Cloudy
5:55 PM 83.5 °F 82.5 °F 55.2 °F 38% 30.15 in 10.0 mi WNW 3.5 mph - N/A   Clear
6:55 PM 78.6 °F - 55.6 °F 45% 30.16 in 10.0 mi Calm Calm - N/A   Clear
7:55 PM 72.9 °F - 55.9 °F 55% 30.17 in 10.0 mi Calm Calm - N/A   Clear
8:55 PM 70.9 °F - 55.4 °F 58% 30.18 in 10.0 mi South 5.8 mph - N/A   Clear
9:55 PM 69.1 °F - 58.8 °F 70% 30.21 in 10.0 mi SW 4.6 mph - N/A   Clear
10:55 PM 66.2 °F - 59.5 °F 79% 30.22 in 10.0 mi Calm Calm - N/A   Clear
11:55 PM 65.7 °F - 59.9 °F 82% 30.21 in 10.0 mi South 5.8 mph - N/A   Clear